Powrót do katalogu

COSMOS 2461

GLONASS

AktywnyNawigacjaMEO
NORAD 36401·PAYLOAD·🇷🇺 Russia

Wystrzelony Mar 1, 2010 z Baikonur Cosmodrome

Loading…

Następne Przeloty (najbliższe 24 godziny)

TLE

ŚwieżeSource: Space-Track

Epoka: Sep 12, 2026, 07:27 UTC

1 36401U 10007B   26255.31077162 -.00000044  00000-0  00000-0 0  9998
2 36401  65.3803 311.5907 0019775 356.6733 318.6199  2.13106797128676

Śledź COSMOS 2461 w czasie rzeczywistym z AllMySat

Download on the App Store